| time (UTC) | temp F | wind direction | speed knots | gust knots | rain 1hr in | rain 24hr in | rain mn in | humidity % | barometer mb |
| 20260906072935 | 81 | 316 | 1.7 | 5.2 | 0.00 | 0.00 | 0.00 | 30 | 1018.0 |
| 20260906071705 | 82 | 347 | 1.7 | 4.3 | 0.00 | 0.00 | 0.00 | 31 | 1018.0 |
| 20260906070435 | 82 | 327 | 1.7 | 4.3 | 0.00 | 0.00 | 0.00 | 32 | 1018.0 |
| 20260906063935 | 82 | 351 | 0.9 | 3.5 | 0.00 | 0.00 | 0.00 | 36 | 1018.0 |
| 20260906062705 | 80 | 298 | 0.9 | 4.3 | 0.00 | 0.00 | 0.00 | 37 | 1018.0 |
| 20260906061434 | 78 | 15 | 0.9 | 3.5 | 0.00 | 0.00 | 0.00 | 37 | 1017.0 |
| 20260906054934 | 74 | 349 | 0.0 | 3.5 | 0.00 | 0.00 | 0.00 | 41 | 1017.0 |
| 20260906053705 | 73 | 15 | 1.7 | 3.5 | 0.00 | 0.00 | 0.00 | 45 | 1017.0 |
| 20260906052434 | 72 | 12 | 0.9 | 3.5 | 0.00 | 0.00 | 0.00 | 48 | 1017.0 |
| 20260906051205 | 72 | 15 | 0.0 | 1.7 | 0.00 | 0.00 | 0.00 | 45 | 1017.0 |
| 20260906045935 | 72 | 248 | 0.0 | 4.3 | 0.00 | 0.00 | 0.00 | 42 | 1017.0 |
| 20260906044705 | 71 | 359 | 0.0 | 1.7 | 0.00 | 0.00 | 0.00 | 42 | 1017.0 |
| 20260906043434 | 71 | 0 | 0.0 | 0.0 | 0.00 | 0.00 | 0.00 | 42 | 1017.0 |
| 20260906042205 | 71 | 0 | 0.0 | 0.0 | 0.00 | 0.00 | 0.00 | 43 | 1017.0 |
| 20260906040934 | 70 | 0 | 0.0 | 0.0 | 0.00 | 0.00 | 0.00 | 44 | 1017.0 |
| 20260906035705 | 71 | 0 | 0.0 | 0.0 | 0.00 | 0.00 | 0.00 | 44 | 1017.0 |
| 20260906034435 | 71 | 0 | 0.0 | 0.0 | 0.00 | 0.00 | 0.00 | 43 | 1016.0 |
| 20260906033205 | 71 | 0 | 0.0 | 0.0 | 0.00 | 0.00 | 0.00 | 44 | 1016.0 |
| 20260906031934 | 71 | 0 | 0.0 | 0.0 | 0.00 | 0.00 | 0.00 | 42 | 1016.0 |
| 20260906025434 | 71 | 0 | 0.0 | 0.0 | 0.00 | 0.00 | 0.00 | 41 | 1016.0 |
| 20260906024205 | 71 | 0 | 0.0 | 0.0 | 0.00 | 0.00 | 0.00 | 41 | 1016.0 |
| 20260906020434 | 72 | 0 | 0.0 | 0.0 | 0.00 | 0.00 | 0.00 | 40 | 1016.0 |
| 20260906013933 | 72 | 0 | 0.0 | 0.0 | 0.00 | 0.00 | 0.00 | 42 | 1016.0 |
| 20260906012704 | 72 | 0 | 0.0 | 0.0 | 0.00 | 0.00 | 0.00 | 42 | 1016.0 |
| 20260906011433 | 72 | 0 | 0.0 | 0.0 | 0.00 | 0.00 | 0.00 | 42 | 1016.0 |
| 20260906004935 | 72 | 0 | 0.0 | 0.0 | 0.00 | 0.00 | 0.00 | 42 | 1016.0 |
| 20260906002433 | 72 | 0 | 0.0 | 0.0 | 0.00 | 0.00 | 0.00 | 42 | 1016.0 |
| 20260906001204 | 72 | 0 | 0.0 | 0.0 | 0.00 | 0.00 | 0.00 | 42 | 1016.0 |
| 20260905235933 | 73 | 0 | 0.0 | 0.0 | 0.00 | 0.00 | 0.00 | 43 | 1016.0 |
| 20260905234704 | 73 | 0 | 0.0 | 0.0 | 0.00 | 0.00 | 0.00 | 42 | 1016.0 |
| 20260905233433 | 73 | 0 | 0.0 | 0.0 | 0.00 | 0.00 | 0.00 | 41 | 1016.0 |
| 20260905232204 | 73 | 0 | 0.0 | 0.0 | 0.00 | 0.00 | 0.00 | 40 | 1016.0 |
| 20260905230933 | 73 | 0 | 0.0 | 0.0 | 0.00 | 0.00 | 0.00 | 41 | 1016.0 |
| 20260905225704 | 74 | 0 | 0.0 | 0.0 | 0.00 | 0.00 | 0.00 | 40 | 1016.0 |
| 20260905224433 | 74 | 0 | 0.0 | 0.0 | 0.00 | 0.00 | 0.00 | 40 | 1016.0 |
| 20260905223204 | 74 | 0 | 0.0 | 0.0 | 0.00 | 0.00 | 0.00 | 39 | 1016.0 |
| 20260905221933 | 74 | 0 | 0.0 | 0.0 | 0.00 | 0.00 | 0.00 | 39 | 1016.0 |
| 20260905215433 | 75 | 0 | 0.0 | 0.0 | 0.00 | 0.00 | 0.00 | 41 | 1017.0 |
| 20260905214205 | 75 | 0 | 0.0 | 0.0 | 0.00 | 0.00 | 0.00 | 42 | 1017.0 |
| 20260905212933 | 76 | 0 | 0.0 | 0.0 | 0.00 | 0.00 | 0.00 | 36 | 1017.0 |
| 20260905210433 | 76 | 0 | 0.0 | 0.0 | 0.00 | 0.00 | 0.00 | 32 | 1017.0 |
| 20260905205203 | 76 | 0 | 0.0 | 0.0 | 0.00 | 0.00 | 0.00 | 33 | 1017.0 |
| 20260905203932 | 76 | 0 | 0.0 | 0.0 | 0.00 | 0.00 | 0.00 | 35 | 1017.0 |
| 20260905201432 | 76 | 0 | 0.0 | 0.0 | 0.00 | 0.00 | 0.00 | 35 | 1017.0 |
| 20260905200203 | 76 | 0 | 0.0 | 0.0 | 0.00 | 0.00 | 0.00 | 37 | 1017.0 |
| 20260905194932 | 75 | 0 | 0.0 | 0.0 | 0.00 | 0.00 | 0.00 | 40 | 1017.0 |
| 20260905193704 | 75 | 0 | 0.0 | 0.0 | 0.00 | 0.00 | 0.00 | 42 | 1017.0 |
| 20260905191203 | 75 | 0 | 0.0 | 0.0 | 0.00 | 0.00 | 0.00 | 45 | 1017.0 |
| 20260905185932 | 75 | 0 | 0.0 | 0.0 | 0.00 | 0.00 | 0.00 | 45 | 1017.0 |
| 20260905184703 | 76 | 0 | 0.0 | 0.0 | 0.00 | 0.00 | 0.00 | 43 | 1017.0 |
| 20260905183432 | 76 | 0 | 0.0 | 0.0 | 0.00 | 0.00 | 0.00 | 43 | 1017.0 |
| 20260905182203 | 76 | 0 | 0.0 | 0.0 | 0.00 | 0.00 | 0.00 | 42 | 1016.0 |
| 20260905180932 | 76 | 0 | 0.0 | 0.0 | 0.00 | 0.00 | 0.00 | 42 | 1016.0 |
| 20260905175703 | 77 | 0 | 0.0 | 0.0 | 0.00 | 0.00 | 0.00 | 44 | 1016.0 |
| 20260905174432 | 77 | 0 | 0.0 | 0.0 | 0.00 | 0.00 | 0.00 | 41 | 1016.0 |
| 20260905173203 | 77 | 0 | 0.0 | 0.0 | 0.00 | 0.00 | 0.00 | 40 | 1016.0 |
| 20260905171932 | 78 | 0 | 0.0 | 0.0 | 0.00 | 0.00 | 0.00 | 39 | 1016.0 |
| 20260905170703 | 79 | 200 | 0.0 | 1.7 | 0.00 | 0.00 | 0.00 | 39 | 1016.0 |
| 20260905165432 | 79 | 177 | 0.0 | 1.7 | 0.00 | 0.00 | 0.00 | 37 | 1016.0 |
| 20260905164203 | 80 | 0 | 0.0 | 0.0 | 0.00 | 0.00 | 0.00 | 36 | 1016.0 |
| 20260905162932 | 80 | 164 | 0.0 | 3.5 | 0.00 | 0.00 | 0.00 | 36 | 1016.0 |
| 20260905161703 | 81 | 171 | 0.9 | 3.5 | 0.00 | 0.00 | 0.00 | 35 | 1016.0 |
| 20260905160432 | 82 | 246 | 1.7 | 4.3 | 0.00 | 0.00 | 0.00 | 34 | 1016.0 |
| 20260905153932 | 82 | 243 | 2.6 | 4.3 | 0.00 | 0.00 | 0.00 | 33 | 1016.0 |
| 20260905152702 | 83 | 238 | 1.7 | 3.5 | 0.00 | 0.00 | 0.00 | 32 | 1016.0 |
| 20260905151432 | 83 | 232 | 1.7 | 3.5 | 0.00 | 0.00 | 0.00 | 30 | 1016.0 |
| 20260905150203 | 83 | 241 | 1.7 | 4.3 | 0.00 | 0.00 | 0.00 | 30 | 1016.0 |
| 20260905144931 | 84 | 255 | 1.7 | 4.3 | 0.00 | 0.00 | 0.00 | 30 | 1016.0 |
| 20260905143702 | 84 | 257 | 3.5 | 6.1 | 0.00 | 0.00 | 0.00 | 31 | 1016.0 |
| 20260905142431 | 84 | 256 | 3.5 | 6.1 | 0.00 | 0.00 | 0.00 | 30 | 1016.0 |
| 20260905135931 | 84 | 257 | 1.7 | 4.3 | 0.00 | 0.00 | 0.00 | 29 | 1016.0 |
| 20260905134702 | 84 | 251 | 1.7 | 5.2 | 0.00 | 0.00 | 0.00 | 30 | 1016.0 |
| 20260905134440 | 84 | 247 | 1.7 | 5.2 | 0.00 | 0.00 | 0.00 | 29 | 1016.0 |
| 20260905131940 | 84 | 255 | 2.6 | 6.1 | 0.00 | 0.00 | 0.00 | 30 | 1017.0 |
| 20260905130710 | 83 | 260 | 2.6 | 5.2 | 0.00 | 0.00 | 0.00 | 31 | 1017.0 |
| 20260905125439 | 83 | 244 | 3.5 | 6.1 | 0.00 | 0.00 | 0.00 | 31 | 1017.0 |
| 20260905122939 | 83 | 245 | 3.5 | 6.1 | 0.00 | 0.00 | 0.00 | 34 | 1017.0 |
| 20260905121711 | 83 | 254 | 4.3 | 7.0 | 0.00 | 0.00 | 0.00 | 35 | 1017.0 |
| 20260905120439 | 83 | 245 | 3.5 | 7.0 | 0.00 | 0.00 | 0.00 | 38 | 1017.0 |
| 20260905115210 | 83 | 246 | 3.5 | 7.0 | 0.00 | 0.00 | 0.00 | 38 | 1017.0 |
| 20260905113939 | 82 | 266 | 2.6 | 7.0 | 0.00 | 0.00 | 0.00 | 38 | 1018.0 |
| 20260905111439 | 82 | 254 | 3.5 | 7.8 | 0.00 | 0.00 | 0.00 | 39 | 1018.0 |
| 20260905110210 | 82 | 262 | 3.5 | 7.0 | 0.00 | 0.00 | 0.00 | 40 | 1018.0 |
| 20260905104939 | 81 | 250 | 3.5 | 7.0 | 0.00 | 0.00 | 0.00 | 41 | 1018.0 |
| 20260905103710 | 81 | 256 | 1.7 | 7.0 | 0.00 | 0.00 | 0.00 | 41 | 1018.0 |
| 20260905102439 | 80 | 264 | 3.5 | 7.0 | 0.00 | 0.00 | 0.00 | 43 | 1018.0 |
| 20260905101210 | 80 | 268 | 2.6 | 7.0 | 0.00 | 0.00 | 0.00 | 43 | 1018.0 |
| 20260905095939 | 80 | 251 | 1.7 | 5.2 | 0.00 | 0.00 | 0.00 | 46 | 1018.0 |
| 20260905094711 | 80 | 261 | 0.9 | 4.3 | 0.00 | 0.00 | 0.00 | 45 | 1018.0 |
| 20260905093439 | 79 | 270 | 1.7 | 5.2 | 0.00 | 0.00 | 0.00 | 48 | 1019.0 |
| 20260905092209 | 79 | 266 | 0.9 | 4.3 | 0.00 | 0.00 | 0.00 | 48 | 1019.0 |
| 20260905090939 | 79 | 255 | 1.7 | 6.1 | 0.00 | 0.00 | 0.00 | 50 | 1019.0 |
| 20260905085709 | 79 | 263 | 1.7 | 4.3 | 0.00 | 0.00 | 0.00 | 51 | 1019.0 |
| 20260905084439 | 79 | 268 | 0.9 | 3.5 | 0.00 | 0.00 | 0.00 | 51 | 1019.0 |
| 20260905081939 | 79 | 276 | 0.0 | 2.6 | 0.00 | 0.00 | 0.00 | 53 | 1019.0 |
| 20260905075438 | 79 | 264 | 0.9 | 4.3 | 0.00 | 0.00 | 0.00 | 55 | 1019.0 |